Tracking 28096 objects as of 27-Sep-2023
HD Live streaming from Space Station
objects crossing your sky now

STARLINK-3690

Track STARLINK-3690 now!
10-day predictions
STARLINK-3690 is classified as:


NORAD ID: 51964
Int'l Code: 2022-025J
Perigee: 548.5 km
Apogee: 550.2 km
Inclination: 53.1 °
Period: 95.5 minutes
Semi major axis: 6920 km
RCS: Unknown
Launch date: March 9, 2022
Source: United States (US)
Launch site: AIR FORCE EASTERN TEST RANGE (AFETR)
Your satellite tracking list
Your tracking list is empty




NASA's NSSDC Master Catalog

Two Line Element Set (TLE):
1 51964U 22025J   23270.44998549  .00001595  00000-0  12076-3 0  9991
2 51964  53.0524  82.0470 0001278  83.5656 276.5480 15.08028914 86181
Source of the keplerian elements: AFSPC